Volver al catálogo

STARLINK-3560

ActivoComunicacionesVLEO
NORAD 51859·PAYLOAD·🇺🇸 United States

Lanzado Mar 3, 2022 desde Cape Canaveral Space Force Station

Loading…

Próximos Pases (próximas 24 horas)

TLE

ActualizadoSource: CelesTrak SupGP

Época: Sep 14, 2026, 21:16 UTC

1 51859C 22022H   26257.88659722  .00032276  00000+0  10367-2 0  2570
2 51859  53.1575 227.9057 0001542  95.9619 195.4779 15.31721752    16

Sigue STARLINK-3560 en tiempo real con AllMySat

Download on the App Store